Regional Weather Roundup
Issued by NWS Upton, NY

Current Version | Previous Version | Text Only | Print | Product List | Glossary On
Versions: 1 2 3 4 5 6 7 8 9 10 11 12 13 14 15 16 17 18 19 20 21 22 23 24 25 26 27
000
ASUS41 KOKX 021008
RWROKX

REGIONAL WEATHER ROUNDUP
NATIONAL WEATHER SERVICE NEW YORK NY
500 AM EST FRI DEC 02 2016

NOTE: "FAIR" INDICATES FEW OR NO CLOUDS BELOW 12,000 FEET WITH NO
SIGNIFICANT WEATHER AND/OR OBSTRUCTIONS TO VISIBILITY.

NYZ071-072-176-178-NJZ106-104-021100-
NEW YORK CITY METRO AREA

CITY           SKY/WX    TMP DP  RH WIND       PRES   REMARKS
Central Park   PTCLDY    40  27  59 W9        29.90R WCI  34
Wall St Helipt SUNNY     41  30  65 W9        29.90R
Bronx Bot Gard NOT AVBL
LaGuardia APRT PTCLDY    43  28  55 W17G25    29.88R
Kennedy INTL   CLEAR     42  28  57 W14       29.89S
Breezy Point     N/A     41 N/A N/A W14G23      N/A
Newark/Liberty PTCLDY    40  28  62 W15       29.88S WCI  32
Teterboro      PTCLDY    38  27  64 S6        29.87S WCI  33
$$

NYZ177-179-078>081-021100-
LONG ISLAND NEW YORK

CITY           SKY/WX    TMP DP  RH WIND       PRES   REMARKS
Jones Beach      N/A     41 N/A N/A W14G20      N/A
Matinecock PT  NOT AVBL
Farmingdale    CLEAR     39  28  64 W9        29.87S WCI  33
MacArthur/ISP  CLEAR     38  28  67 W9        29.86R WCI  31
Shirley        CLEAR     38  28  67 SW6       29.87R WCI  33
Westhampton    CLEAR     36  28  73 W9        29.87R WCI  29
Southampton    NOT AVBL
Bridgehampton  NOT AVBL
East Hampton     N/A     37  29  71 W8        29.84R WCI  31
Montauk          N/A     45  34  65 W13G23    29.84R
$$

NYZ052-065-067-021100-
HUDSON VALLEY

CITY           SKY/WX    TMP DP  RH WIND       PRES   REMARKS
White Plains   PTCLDY    38  27  64 W7G16     29.83S WCI  33
Newburgh       PTCLDY    37  30  75 W14       29.83F WCI  29
Montgomery     MOCLDY    36  28  73 SW6       29.84R WCI  31
Poughkeepsie   PTCLDY    38  28  67 SW6       29.83S WCI  33
Albany         PTCLDY    40  30  67 W9        29.78S WCI  34
$$

NJZ001-105-106-008-010-013-015-019>022-104-021100-
NEW JERSEY

CITY           SKY/WX    TMP DP  RH WIND       PRES   REMARKS
Newark/Liberty PTCLDY    40  28  62 W15       29.88S WCI  32
Teterboro      PTCLDY    38  27  64 S6        29.87S WCI  33
Caldwell       PTCLDY    38  27  64 S6        29.88S WCI  33
Somerville     CLEAR     39  27  62 CALM      29.89R
Linden           N/A     39  27  61 W8        29.90R WCI  34
Sussex         CLOUDY    35  28  75 SW5       29.85S WCI  31
Andover          N/A     35  27  72 CALM      29.86S
Trenton        PTCLDY    38  27  64 W8        29.91S WCI  32
Millville      CLEAR     38  30  73 W7        29.97R WCI  33
Atlantic City  CLEAR     39  27  62 W7        29.95R WCI  34
Wrightstown    CLEAR     39  28  65 W9        29.91R WCI  33
Toms River     CLEAR     38  28  67 W9        29.93S WCI  31
Belmar         CLEAR     34  27  75 W10       29.92R WCI  26
$$

PAZ047>061-062-071-021100-
EASTERN PENNSYLVANIA

CITY           SKY/WX    TMP DP  RH WIND       PRES   REMARKS
Philadelphia   PTCLDY    40  28  62 W10       29.96R WCI  33
Allentown      PTCLDY    35  26  69 SW6       29.91R WCI  30
Scranton       CLOUDY    37  29  72 SW6       29.86R WCI  32
$$

CTZ002-004>006-009-010-012-RIZ004-006-007-MAZ004-011-015-021100-
SOUTHERN NEW ENGLAND
 IN CT

CITY           SKY/WX    TMP DP  RH WIND       PRES   REMARKS
Bradley INTL   PTCLDY    33  27  78 S7        29.80R WCI  27
Hartford       PTCLDY    34  29  82 S3        29.82R
Danbury        PTCLDY    36  28  73 W8        29.84R WCI  30
Wtrbury/Oxford PTCLDY    36  25  64 W3        29.83S
Bridgeport       N/A    N/A N/A N/A MISG      29.84R
Meriden        PTCLDY    32  26  78 SE5       29.82S WCI  27
New Haven      PTCLDY    40  29  64 W9        29.83S WCI  34
Chester          N/A     37  28  70 W5        29.80F WCI  34
Groton         PTCLDY    42  30  62 W6        29.82R
Wilimantic     CLEAR     38  29  70 SW3       29.81R

 IN RI

CITY           SKY/WX    TMP DP  RH WIND       PRES   REMARKS
Providence     PTCLDY    39  28  64 W13       29.79R WCI  31
Block Island   CLEAR     44  33  65 W14G22    29.82R
Westerly       PTCLDY    41  27  57 W5        29.82R
 IN MA

CITY           SKY/WX    TMP DP  RH WIND       PRES   REMARKS
Boston         CLEAR     40  31  70 W16       29.75R WCI  31
Worcester      CLEAR     34  27  75 W20       29.73R WCI  23
Westfield      CLEAR     30  28  92 CALM      29.79R
Provincetown   CLEAR     42  34  73 W15G28    29.75R
Nantucket      CLEAR     44  31  60 W18G25    29.78R
$$

ANZ330-335-338-340-345-350-353-355-021100-
COASTAL MARINE OBSERVATIONS


STATION/POSITION TIME  SKY/WX   TEMP    WIND        PRES    VSBY  WAVE
                                AIR SEA DIR/SP/G                  HT/PER
                 (UTC)          (F)     (DEG/KT/KT) (MB)    (MI)  (FT/S)
NY HARB ENTRANCE 0850            45 54  280/ 23/ 27 1011.5          4/ 4
20 S FIRE ISLAND 0850            46 55  290/ 23/ 29 1010.9          7/ 6
GREAT SOUTH BAY  0930            43 45                N/A
23 SSW MONTAUK P 0950            46 55  280/ 23/ 27 1010.3          7/ 6
15 E BARNEGAT LI 0930               55                N/A           4/ 4
HUDSON CANYON    0850            49 59              1011.4          8/ 7
KINGS POINT      0936            42 49              1011.2
EXECUTION ROCKS  0945            43     250/ 14/ 17   N/A
CENTRAL LI SOUND 0930            45 52  270/ 21/ 25   N/A           4/ 5
EASTERN LI SOUND NOT AVBL
ROBBINS REEF     0936            41     270/ 17/ 21 1011.9
$$


>>>>>>>>>>>>>>>>>>>>>>>>>>>> KEY <<<<<<<<<<<<<<<<<<<<<<<<<<<
>                                                          <
>     SKY/WX - Sky Condition/Present Weather               <
>     TMP    - Temperature in Fahrenheit                   <
>     DP     - Dew Point in Fahrenheit                     <
>     RH     - Relative Humidity in Percent                <
>     WIND   - Direction (from) and Speed in MPH           <
>     PRES   - Mean Sea Level Pressure (inches of Hg)      <
>     WCI    - Wind Chill Index                            <
>     VSB    - VISIBILITY IN MILES                         <
>     HX     - HEAT INDEX                                  <
>     TC     - TEMPERATURE IN CELSIUS                      <
>     VRB    - VARIABLE WIND DIRECTION                     <
>                                                          <
>>>>>>>>>>>>>>>>>>>>>>>>>>>> KEY <<<<<<<<<<<<<<<<<<<<<<<<<<<




USA.gov is the U.S. government's official web portal to all federal, state and local government web resources and services.